This demonstration page uses our WeatherBlox Daily Observations layout. Learn more.

Left ArrowRight Arrow

Hourly Observations for September 11, 2015

Temp ( °F °C ) Dew Point ( °F °C ) Humidity (%) Winds ( mph kmh ) Pressure ( in mb ) Visibility ( mi km ) Precip ( " mm )
12:51 am 00:51 Clear 71 21.7 60 15.6 68 68 NW 7 11 29.87 1011 10 16.0934 0 0
1:51 am 01:51 Clear 70 21.1 60 15.6 71 71 Calm 29.86 1011 10 16.0934 0 0
2:51 am 02:51 Clear 68 20 61 16.1 78 78 Calm 29.86 1011 10 16.0934 0 0
3:51 am 03:51 Clear 67 19.4 61 16.1 81 81 Calm 29.86 1011 10 16.0934 0 0
4:51 am 04:51 Clear 69 20.6 61 16.1 76 76 E 6 9 29.86 1011 10 16.0934 0 0
5:51 am 05:51 Clear 69 20.6 61 16.1 76 76 Calm 29.88 1012 10 16.0934 0 0
6:51 am 06:51 Sunny 70 21.1 61 16.1 73 73 NE 3 6 29.91 1013 10 16.0934 0 0
7:51 am 07:51 Sunny 74 23.3 61 16.1 64 64 Calm 29.91 1013 10 16.0934 0 0
8:51 am 08:51 Sunny 77 25 61 16.1 58 58 Calm 29.92 1013 10 16.0934 0 0
9:51 am 09:51 Sunny 80 26.7 61 16.1 52 52 VRB 3 6 29.92 1013 10 16.0934 0 0
10:51 am 10:51 Sunny 84 28.9 61 16.1 46 46 Calm 29.9 1013 10 16.0934 0 0
11:51 am 11:51 Sunny 88 31.1 59 15 38 38 VRB 3 6 29.87 1012 10 16.0934 0 0
12:51 pm 12:51 Sunny 92 33.3 56 13.3 30 30 VRB 6 9 29.84 1011 10 16.0934 0 0
1:51 pm 13:51 Sunny 93 33.9 53 11.7 26 26 VRB 5 7 29.82 1010 10 16.0934 0 0
2:51 pm 14:51 Sunny 95 35 47 8.3 19 19 WNW 6 9 29.79 1009 10 16.0934 0 0
3:51 pm 15:51 Sunny 96 35.6 48 8.9 19 19 VRB 3 6 29.76 1008 10 16.0934 0 0
4:51 pm 16:51 Sunny 96 35.6 48 8.9 19 19 SW 7 11 29.76 1008 10 16.0934 0 0
5:51 pm 17:51 Sunny 94 34.4 52 11.1 24 24 SSE 3 6 29.78 1008 10 16.0934 0 0
6:51 pm 18:51 Clear 88 31.1 48 8.9 25 25 SE 20 31 29.82 1010 10 16.0934 0 0
7:51 pm 19:51 Clear 86 30 50 10 29 29 WSW 5 7 29.84 1011 10 16.0934 0 0
8:51 pm 20:51 Clear 84 28.9 49 9.4 30 30 N 10 17 29.85 1011 10 16.0934 0 0
9:51 pm 21:51 Clear 83 28.3 49 9.4 31 31 SW 7 11 29.87 1012 10 16.0934 0 0
10:51 pm 22:51 Clear 80 26.7 52 11.1 38 38 Calm 29.89 1012 10 16.0934 0 0
11:51 pm 23:51 Clear 78 25.6 52 11.1 40 40 NE 5 7 29.9 1012 10 16.0934 0 0

Powered by AerisWeather